Simultaneous Nadir Overpasses (SNOs) Predictions

Prediction of SNOs between GOES-15 and NOAA-19 Satellite Orbit:

Table of predicted SNOs for the next 14.0 days since TLE Epoch: 10/24/2025
Index Date Time (GOES-15) GOES-15 Lat,Lon NOAA-19 Lat,Lon Distance(km) Time Diff (sec)
1 10/25/2025 17:46:03 -0.66, 61.57 -0.34, 62.96 158.73 80
2 10/28/2025 06:04:30 0.66, 61.51 1.35, 58.55 337.71 80
3 10/29/2025 05:54:30 0.67, 61.53 0.64, 61.63 11.74 80
4 10/30/2025 05:41:48 0.67, 61.54 -0.03, 64.71 361.22 80
5 11/01/2025 18:00:18 -0.66, 61.69 -0.95, 60.29 159.09 80
6 11/02/2025 17:47:37 -0.66, 61.71 -0.27, 63.37 189.89 80
7 11/05/2025 06:03:25 0.64, 61.68 1.25, 58.95 310.98 80
8 11/06/2025 05:53:24 0.65, 61.71 0.58, 62.04 37.53 80
9 11/07/2025 05:40:42 0.66, 61.74 -0.10, 65.12 386.05 80
